Location: ?????????
(38.5999°N, 22.7695°E)
Time: 15:42:08
(UTC+00:00)

Cosmos 2154 Rocket - Pass Details

Date: 22 August 2024
Orbit: 964 x 997 km, 82.9° (Epoch: 17 September)

Event Time Altitude Azimuth Distance (km) Brightness Sun altitude
Rises 00:43:45 0° 11° (N) 3,665 7.9 -31.1°
Reaches altitude 10° 00:47:30 10° 33° (NNE) 2,710 7.2 -30.6°
Maximum altitude 00:51:01 15° 68° (ENE) 2,329 6.6 -30.2°
Drops below altitude 10° 00:54:30 10° 103° (ESE) 2,700 6.6 -29.7°
Sets 00:58:11 0° 125° (SE) 3,643 7.1 -29.2°
